Location: Schommer Observatory
(40.5200°N, 74.4500°W)
Time: 16:53:13
(UTC-05:00)

Vanguard 1 Rocket - All Passes

Search period start: 15 December 2017 00:00
Search period end: 25 December 2017 00:00
Orbit: 656 x 4222 km, 34.3° (Epoch: 13 December)

Date Brightness Start Highest point End Pass type
(mag) Time Alt. Az. Time Alt. Az. Time Alt. Az.
15 Dec - 15:07:43 10° SSW 15:14:14 31° SE 15:25:13 10° E daylight
15 Dec - 17:29:58 10° WSW 17:39:47 65° SSE 17:59:10 10° E visible
15 Dec - 19:54:43 10° W 20:08:46 67° S 20:33:09 10° ESE visible
15 Dec - 22:21:40 10° W 22:39:22 45° SSW 23:02:56 10° SSE visible
16 Dec - 00:55:23 10° W 01:08:55 18° SW 01:23:10 10° SSW visible
16 Dec - 13:59:57 10° SSE 14:03:59 16° SE 14:09:21 10° E daylight
16 Dec - 16:19:55 10° SW 16:27:56 53° SSE 16:43:30 10° E daylight
16 Dec - 18:43:45 10° W 18:55:24 69° S 19:17:38 10° ESE visible
16 Dec - 21:09:28 10° W 21:25:21 54° SSW 21:49:46 10° SE visible
16 Dec - 23:38:56 10° W 23:55:32 28° SW 00:15:01 10° S visible
17 Dec - 15:10:26 10° SSW 15:16:54 37° SE 15:28:17 10° E daylight
17 Dec - 17:33:13 10° WSW 17:42:46 67° S 18:01:49 10° E visible
17 Dec - 19:58:00 10° W 20:11:37 62° SSW 20:35:21 10° ESE visible
17 Dec - 22:25:13 10° W 22:41:49 38° SW 23:04:04 10° SSE visible
18 Dec - 01:03:00 10° WSW 01:11:08 13° SW 01:19:38 10° SSW visible
18 Dec - 14:01:52 10° S 14:06:32 20° SE 14:13:15 10° E daylight
18 Dec - 16:23:04 10° WSW 16:30:53 58° SSE 16:46:16 10° E daylight
18 Dec - 18:47:04 10° W 18:58:23 66° S 19:20:04 10° ESE visible
18 Dec - 21:12:52 10° W 21:28:02 48° SSW 21:51:22 10° SE visible
18 Dec - 23:43:33 10° W 23:57:53 22° SW 00:14:37 10° S visible
19 Dec - 15:13:21 10° SW 15:19:43 42° SSE 15:31:16 10° E daylight
19 Dec - 17:36:31 10° WSW 17:45:49 67° S 18:04:26 10° E visible
19 Dec - 20:01:21 10° W 20:14:28 56° SSW 20:37:20 10° SE visible
19 Dec - 22:29:03 10° W 22:44:20 31° SW 23:04:42 10° SSE visible
20 Dec - 14:04:18 10° SSW 14:09:13 26° SE 14:16:44 10° E daylight
20 Dec - 16:26:17 10° WSW 16:33:55 61° SSE 16:49:01 10° E daylight
20 Dec - 18:50:24 10° W 19:01:23 62° S 19:22:22 10° ESE visible
20 Dec - 21:16:23 10° W 21:30:44 41° SSW 21:52:37 10° SSE visible
20 Dec - 23:49:24 10° WSW 00:00:19 16° SW 00:12:46 10° SSW visible
21 Dec - 12:57:09 10° SSE 12:59:07 12° SE 13:01:20 10° ESE daylight
21 Dec - 15:16:25 10° SW 15:22:40 48° SSE 15:34:12 10° E daylight
21 Dec - 17:39:50 10° W 17:48:54 65° S 18:06:59 10° ESE visible
21 Dec - 20:04:46 10° W 20:17:21 49° SSW 20:39:04 10° SE visible
21 Dec - 22:33:20 10° W 22:46:55 25° SW 23:04:39 10° S visible
22 Dec - 14:07:02 10° SSW 14:12:02 31° SSE 14:20:01 10° E daylight
22 Dec - 16:29:35 10° WSW 16:37:01 62° S 16:51:45 10° E daylight
22 Dec - 18:53:46 10° W 19:04:24 56° SSW 19:24:30 10° SE visible
22 Dec - 21:20:09 10° W 21:33:29 33° SSW 21:53:25 10° SSE visible
23 Dec - 00:00:36 10° SW 00:02:56 10° SW 00:05:21 10° SW visible
23 Dec - 12:58:36 10° S 13:01:49 16° SE 13:05:53 10° ESE daylight
23 Dec - 15:19:36 10° WSW 15:25:43 52° SSE 15:37:06 10° E daylight
23 Dec - 17:43:12 10° W 17:52:00 61° S 18:09:27 10° ESE visible
23 Dec - 20:08:18 10° W 20:20:15 42° SSW 20:40:28 10° SE visible
23 Dec - 22:38:29 10° WSW 22:49:36 18° SW 23:03:32 10° S visible
24 Dec - 14:09:58 10° SW 14:14:59 37° SSE 14:23:09 10° E daylight
24 Dec - 16:32:56 10° WSW 16:40:10 61° S 16:54:27 10° ESE daylight
24 Dec - 18:57:12 10° W 19:07:26 49° SSW 19:26:25 10° SE visible
24 Dec - 21:24:16 10° W 21:36:19 27° SSW 21:53:39 10° SSE visible
